Location: �couen
(49.0206°N, 2.3831°E)
Time: 23:45:27
(UTC+00:00)

Cosmos 1758 - Pass Details

Date: 31 May 2022
Orbit: 538 x 557 km, 82.5° (Epoch: 01 July)

Event Time Altitude Azimuth Distance (km) Brightness Sun altitude
Rises 23:28:00 0° 344° (NNW) 2,718 8.4 -18.8°
Reaches altitude 10° 23:30:13 10° 338° (NNW) 1,823 7.1 -18.8°
Maximum altitude 23:34:03 44° 266° (W) 762 4.0 -18.9°
Enters shadow 23:35:04 36° 226° (SW) 880 4.0 -18.9°
